Regional Weather Roundup
Issued by NWS Newport/Morehead, NC

Current Version | Previous Version | Graphics & Text | Print | Product List | Glossary Off
Versions: 1 2 3 4 5 6 7 8 9 10 11 12 13 14 15 16 17 18 19 20 21 22 23 24 25 26 27 28 29 30 31 32 33 34 35 36 37 38 39 40 41 42 43 44 45 46 47 48 49 50

000
ASUS42 KMHX 090525
RWRMHX
WEATHER ROUNDUP FOR EASTERN NORTH CAROLINA
NATIONAL WEATHER SERVICE NEWPORT/MOREHEAD CITY NC
1200 AM EST TUE FEB 09 2016

NOTE: "FAIR" INDICATES FEW OR NO CLOUDS BELOW 12,000 FEET
WITH NO SIGNIFICANT WEATHER AND/OR OBSTRUCTIONS TO VISIBILITY

NCZ015>017-031-032-045>047-102-103-090600-
NORTH COAST

CITY           SKY/WX    TMP DP  RH WIND       PRES   REMARKS
EDENTON        MOCLDY    43  42  97 CALM      29.61F
ELIZABETH CITY LGT RAIN  41  39  93 NW3       29.62F
KITTY HAWK     CLOUDY    42  37  84 CALM      29.61F HAZE
MANTEO         CLEAR     43  40  89 SW5       29.62F

$$

NCZ045>047-081-094-103-104-090600-
CENTRAL COAST

CITY           SKY/WX    TMP DP  RH WIND       PRES   REMARKS
FRISCO         PTCLDY    46  39  76 NW15      29.62F
SWANQUARTER      N/A     43 N/A N/A NW3       29.59S

$$

NCZ095-097-098-100-101-090600-
SOUTHERN COAST

CITY           SKY/WX    TMP DP  RH WIND       PRES   REMARKS
BEAUFORT       CLOUDY    43  38  82 W3        29.62F
CEDAR ISLAND     N/A     45 N/A N/A W5        29.65S
JACKSONVILLE   CLOUDY    43  39  86 W3        29.62F
PINEY ISLAND   CLOUDY   N/A N/A N/A W3        29.61F
WILMINGTON     CLOUDY    46  40  79 W8        29.64F


$$

NCZ011>013-027>030-043-044-078>080-089-090>093-098-090600-
COASTAL PLAIN

CITY           SKY/WX    TMP DP  RH WIND       PRES   REMARKS
AHOSKIE        CLOUDY    38  37  97 CALM      29.62F FOG
CLINTON        CLOUDY    40  40 100 CALM      29.64F
ELIZABETHTOWN  CLOUDY    42  41  96 SW5       29.65S
GOLDSBORO      CLOUDY    39  39 100 CALM      29.60F
GREENVILLE     CLOUDY    41  39  93 CALM      29.64F FOG
HAVELOCK       CLOUDY    44  37  76 W9        29.63F
KENANSVILLE    MOCLDY    39  39 100 SW3       29.64S
KINSTON        MOCLDY    39  39  99 CALM      29.62F
NEW BERN       CLOUDY    42  37  82 W3        29.63F
RICHLANDS      CLOUDY    41  36  81 SW3       29.63S
ROCKY MOUNT    FOG       36  36 100 CALM      29.62F VSB 1/4
WASHINGTON       N/A     40  38  94 CALM      29.62F
WHITEVILLE     CLOUDY    44  42  92 CALM      29.65S

$$

AMZ130-135-150-152-154-156-158-170-250-252-270-ANZ085-086-088-633-658-670-090600-
MARINE OBSERVATIONS

STATION/POSITION TIME  TEMP    WIND        PRES    WAVE   SWELL
                       AIR SEA DIR/SP/G            HT/PER HT/PER
                 (UTC) (F)     (DEG/KT/KT) (MB)    (FT/S) (FT/S)
CHESAPEAKE LIGHT 0500   44     110/ 14/ 16 1003.4
64 E VA BEACH    0450   48 52   80/ 10/ 14 1003.3   14/14  15/14
DUCK             0500   45     120/  6/  8 1002.2
2 E DUCK         0411      44                N/A    10/13   8/13
OREGON INLET     0500   44 45  180/  3/  4 1002.9
13E OREGON INLT  0500      47                N/A    14/15  13/15
HATTERAS CG      0500   47 53  300/ 18/ 23 1002.1
DIAMOND BUOY     0450   50 74  310/ 25/ 29 1002.4   11/14  10/14
CAPE LOOKOUT     NOT AVBL
BEAUFORT LAB     0500   44 47  280/  3/  6 1001.8
30 SE NEW RVR IN 0508   52 61              1002.3
30 SE NEW RVR IN 0425      61                N/A     7/ 8   3/13
27 SE WRIGHTSVLE 0408   42 60  310/ 14/ 19 1003.2
5 SE WRIGHTSVLE  NOT AVBL
225 S CAPE HAT   0450   64 69  240/ 25/ 35   N/A    12/14   8/14
41 SE CHARLESTON 0450   52 65  270/ 14/ 17 1006.0    7/ 7   5/ 7

$$



USA.gov is the U.S. government's official web portal to all federal, state and local government web resources and services.